Location: Sungai Igah
(2.7333°N, 114.2500°E)
Time: 11:43:47
(UTC+00:00)

NOSS 3-4 (A) - Pass Details

Date: 14 June 2021
Orbit: 869 x 1343 km, 63.4° (Epoch: 31 July)

Event Time Altitude Azimuth Distance (km) Brightness Sun altitude
Exits shadow 20:57:19 31° 257° (WSW) 1,506 3.9 -18.5°
Maximum altitude 20:59:04 37° 293° (WNW) 1,315 3.9 -18.1°
Drops below altitude 10° 21:04:20 10° 0° (N) 2,505 6.0 -16.9°
Sets 21:07:00 0° 9° (N) 3,455 6.9 -16.4°
